Flag for Mongolia Weather past 2 weeks in Ulaanbaatar, Mongolia

Now
50 °F

Clear.


Feels Like: 50 °F
Forecast: 48 / 78 °F
Wind: 1 mph from North

Location: Ulan-Bator

Current Time: Aug 28, 2014 at 5:44:36 AM

Latest Report: Aug 28, 2014 at 5:30 AM


Visibility: 10 mi

Pressure: 30.01 "Hg

Humidity: 76%

Dew point: 43 °F

Location of UlaanbaatarLocation

Historic Weather in Ulaanbaatar — Graph

°F

Ulaanbaatar temperature yesterday

Maximum temperature yesterday: 75 °F (at 4:30 PM)
Minimum temperature yesterday: 41 °F (at 5:30 AM)
Average temperature yesterday: 60 °F

Past Weeks' High & Low Weather Summary

 TemperatureHumidityPressure
High84 °F (Aug 18, 4:00 PM)100% (Aug 17, 6:30 AM)30.09 "Hg (Aug 17, 6:30 AM)
Low36 °F (Aug 24, 6:30 AM)13% (Aug 18, 4:30 PM)29.68 "Hg (Aug 21, 5:00 PM)
Average60 °F59%29.97 "Hg
* Reported Aug 13 4:00 AM — Aug 28 4:30 AM, Ulaanbaatar, Weather by CustomWeather, © 2014

Note: Actual official high and low records may vary slightly from our data, if they occured in-between our weather recording intervals... More about our weather records

Advertising

Ulaanbaatar weather history for previous 24 hours

 ConditionsComfort  
Time TempWeatherWind HumidityBarometerVisibility
4:30 AM
Aug 28
50 °FClear.1 mph76%30.01 "Hg10 mi
4:00 AM52 °FClear.1 mph72%30.01 "Hg10 mi
3:00 AM54 °FClear.1 mph72%30.01 "Hg10 mi
2:00 AM52 °FClear.1 mph77%29.98 "Hg10 mi
1:00 AM55 °FClear.1 mph67%30.01 "Hg10 mi
12:30 AM57 °FClear.1 mph63%29.98 "Hg10 mi
12:00 AM61 °FClear.1 mph52%29.98 "Hg10 mi
11:00 PM
Aug 27
63 °FPassing clouds.6 mph49%29.98 "HgN/A
10:30 PM63 °FClear.10 mph49%29.98 "Hg10 mi
10:00 PM63 °FPassing clouds.8 mph52%29.98 "HgN/A
9:30 PM64 °FClear.10 mph49%29.98 "Hg10 mi
9:00 PM61 °FPassing clouds.10 mph48%29.98 "HgN/A
8:30 PM57 °FPassing clouds.6 mph63%29.98 "HgN/A
8:00 PM61 °FPassing clouds.6 mph59%29.98 "HgN/A
7:30 PM73 °FPassing clouds.No wind23%29.95 "HgN/A
7:00 PM75 °FPassing clouds.No wind25%29.95 "HgN/A
6:30 PM75 °FPassing clouds.1 mph24%29.95 "HgN/A
6:00 PM75 °FPassing clouds.1 mph24%29.95 "HgN/A
5:30 PM75 °FPassing clouds.1 mph22%29.95 "HgN/A
5:00 PM75 °FPassing clouds.3 mph24%29.98 "HgN/A
4:30 PM75 °FPassing clouds.3 mph25%29.98 "HgN/A
4:00 PM73 °FPassing clouds.3 mph27%29.98 "HgN/A
3:30 PM73 °FPassing clouds.3 mph25%29.98 "HgN/A
3:00 PM73 °FPassing clouds.6 mph27%29.98 "HgN/A
2:30 PM72 °FPassing clouds.3 mph29%30.01 "HgN/A
2:00 PM72 °FPassing clouds.3 mph25%30.01 "HgN/A
1:30 PM70 °FPassing clouds.3 mph40%30.01 "HgN/A
1:00 PM70 °FPassing clouds.3 mph43%30.01 "HgN/A
12:30 PM68 °FPassing clouds.3 mph46%30.01 "HgN/A
12:00 PM68 °FPassing clouds.1 mph49%30.01 "HgN/A
11:30 AM66 °FPassing clouds.3 mph56%30.04 "HgN/A
11:00 AM64 °FPassing clouds.No wind56%30.04 "HgN/A
10:30 AM63 °FPassing clouds.1 mph59%30.04 "HgN/A
10:00 AM59 °FPassing clouds.No wind68%30.04 "HgN/A
9:30 AM57 °FSunny.No wind72%30.04 "Hg10 mi
9:00 AM55 °FSunny.No wind77%30.04 "Hg10 mi
8:30 AM52 °FSunny.No wind82%30.04 "Hg10 mi
8:00 AM50 °FSunny.No wind82%30.04 "Hg10 mi
7:30 AM48 °FSunny.1 mph94%30.04 "Hg10 mi
7:00 AM43 °FClear.1 mph93%30.04 "Hg10 mi
6:30 AM45 °FClear.1 mph93%30.04 "Hg10 mi
6:00 AM43 °FClear.No wind93%30.01 "Hg10 mi
5:30 AM41 °FClear.1 mph93%30.01 "Hg10 mi
5:00 AM43 °FClear.No wind93%30.01 "Hg10 mi
Weather by CustomWeather, © 2014

See weather overviewHow to use our weather pages